Date_and_time,latitude,longitude,wind_speed,RelWindDirFrom,WindDirFrom,air_pressure,air_temperature,relative_humidity,Temp,platform_speed_wrt_ground,air_pressure_at_mean_sea_level,platform_orientation
2018-08-22 23:30,50.6304383333333,-96.98076,12.9,19.0,229,983.66,27.9,19,21.07,0.0,1008.78,90.0
2018-08-22 23:40,50.6304416666667,-96.9807583333333,11.8,18.6,222,983.46,27.7,21,20.92,0.0,1008.58,90.0
2018-08-22 23:50,50.63044,-96.98076,13.8,21.0,221,983.38,27.6,21,20.92,0.0,1008.51,90.0
2018-08-23 00:00,50.6304416666667,-96.98076,13.4,19.7,219,983.27,27.6,21,20.91,0.0,1008.41,90.0
2018-08-23 00:10,50.6304433333333,-96.9807616666667,9.5,15.6,226,983.20,27.5,21,20.89,0.0,1008.33,90.0
2018-08-23 00:20,50.6304433333333,-96.9807633333333,9.7,16.9,222,983.09,27.4,21,20.87,0.0,1008.22,90.0
2018-08-23 00:30,50.6304533333333,-96.980765,9.9,16.1,224,982.96,27.3,21,20.86,0.0,1008.10,90.0
2018-08-23 00:40,50.6304483333333,-96.9807666666667,9.5,14.2,223,982.84,27.0,22,20.84,0.0,1007.99,90.0
2018-08-23 00:50,50.6304683333333,-96.9807666666667,8.7,12.4,221,982.73,26.7,22,20.82,0.0,1007.90,90.0
2018-08-23 01:00,50.6304383333333,-96.980765,8.5,12.0,217,982.60,26.4,22,20.80,0.0,1007.78,131.7
2018-08-23 01:10,50.63044,-96.9807633333333,8.0,11.9,217,982.49,25.9,24,20.78,0.0,1007.69,131.7
2018-08-23 01:20,50.6304483333333,-96.9807666666667,6.5,9.1,215,982.42,25.4,25,20.76,0.0,1007.64,131.7
2018-08-23 01:30,50.63045,-96.9807683333333,6.2,9.3,212,982.29,25.0,26,20.75,0.0,1007.53,131.7
2018-08-23 01:40,50.6304516666667,-96.9807683333333,7.2,9.9,209,982.22,24.7,26,20.74,0.0,1007.48,131.7
2018-08-23 01:50,50.6304533333333,-96.9807666666667,6.9,9.1,208,982.22,24.3,27,20.74,0.0,1007.50,131.7
2018-08-23 02:00,50.630455,-96.980765,6.8,8.7,201,982.20,24.0,28,20.71,0.0,1007.49,318.7
2018-08-23 02:10,50.6304533333333,-96.9807633333333,7.0,8.5,194,982.18,23.5,31,20.66,0.0,1007.50,318.7
2018-08-23 02:20,50.6304533333333,-96.98075,6.2,7.8,191,982.21,22.8,36,20.64,0.0,1007.57,318.7
2018-08-23 02:30,50.630445,-96.98076,6.7,8.1,189,982.20,22.3,37,20.62,0.0,1007.58,318.7
2018-08-23 02:40,50.6304433333333,-96.980755,7.4,9.3,188,982.17,22.0,37,20.59,0.0,1007.58,318.7
2018-08-23 02:50,50.630445,-96.9807566666667,7.5,10.5,191,982.15,21.8,37,20.57,0.0,1007.58,318.7
2018-08-23 03:00,50.63043,-96.9807533333333,7.5,10.1,192,982.11,21.7,37,20.56,0.0,1007.56,156.5
2018-08-23 03:10,50.6304466666667,-96.9807616666667,7.9,10.9,198,982.08,21.7,34,20.57,0.0,1007.55,156.5
2018-08-23 03:20,50.630445,-96.9807416666667,8.4,11.7,198,982.01,21.7,34,20.58,0.0,1007.50,156.5
2018-08-23 03:30,50.6304316666667,-96.980755,8.3,11.8,200,981.92,21.6,34,20.59,0.0,1007.44,156.5
2018-08-23 03:40,50.6304333333333,-96.980755,8.0,10.6,198,981.83,21.3,35,20.59,0.0,1007.36,156.5
2018-08-23 03:50,50.6304366666667,-96.9807583333333,7.7,9.7,198,981.76,21.0,36,20.58,0.0,1007.32,156.5
2018-08-23 04:00,50.6304366666667,-96.98076,6.8,9.2,200,981.76,20.8,36,20.57,0.0,1007.35,167.4
2018-08-23 04:10,50.6304383333333,-96.9807616666667,7.5,9.9,200,981.63,20.6,37,20.56,0.0,1007.25,167.4
2018-08-23 04:20,50.63044,-96.9807616666667,8.0,10.3,199,981.44,20.4,37,20.56,0.0,1007.09,167.4
2018-08-23 04:30,50.6304416666667,-96.9807633333333,8.9,11.3,198,981.26,20.3,38,20.55,0.0,1006.93,167.4
2018-08-23 04:40,50.63044,-96.980765,9.1,11.7,199,981.12,20.2,38,20.54,0.0,1006.80,167.4
2018-08-23 04:50,50.6304416666667,-96.980765,9.0,11.0,200,981.01,20.1,38,20.52,0.0,1006.69,167.4
2018-08-23 05:00,50.6304416666667,-96.9807633333333,9.2,12.0,202,980.93,20.2,37,20.51,0.0,1006.60,360.0
2018-08-23 05:10,50.6304416666667,-96.980765,8.9,11.4,206,980.97,20.4,36,20.50,0.0,1006.63,360.0
2018-08-23 05:20,50.6304416666667,-96.980765,8.3,11.1,208,981.03,20.5,36,20.48,0.0,1006.70,360.0
2018-08-23 05:30,50.6304416666667,-96.980765,7.5,9.6,204,981.03,20.3,37,20.47,0.0,1006.72,360.0
2018-08-23 05:40,50.6304416666667,-96.980765,7.1,9.2,198,981.05,19.9,40,20.46,0.0,1006.77,360.0
2018-08-23 05:50,50.63044,-96.9807666666667,7.1,9.5,200,981.03,19.5,40,20.46,0.0,1006.78,360.0
2018-08-23 06:00,50.6304416666667,-96.9807666666667,7.3,9.9,202,981.02,19.3,40,20.44,0.0,1006.79,327.5
2018-08-23 06:10,50.6304416666667,-96.9807666666667,7.0,8.9,203,981.02,19.2,41,20.43,0.0,1006.80,327.5
2018-08-23 06:20,50.6304466666667,-96.9807833333333,7.6,10.0,200,981.01,19.0,42,20.42,0.0,1006.80,327.5
2018-08-23 06:30,50.6304483333333,-96.980775,7.0,9.1,203,981.02,18.6,43,20.39,0.0,1006.83,327.5
2018-08-23 06:40,50.6304466666667,-96.98077,7.2,8.8,204,980.97,18.5,43,20.38,0.0,1006.79,327.5
2018-08-23 06:50,50.6304483333333,-96.9807733333333,6.9,8.0,204,980.92,18.3,44,20.37,0.0,1006.75,327.5
2018-08-23 07:00,50.6304483333333,-96.98077,6.4,9.2,203,980.88,18.2,45,20.40,0.0,1006.70,345.5
2018-08-23 07:10,50.6304483333333,-96.98077,5.8,7.0,199,980.81,17.9,47,20.35,0.0,1006.63,345.5
2018-08-23 07:20,50.6304433333333,-96.9807733333333,5.7,6.9,201,980.71,17.7,48,20.33,0.0,1006.55,345.5
2018-08-23 07:30,50.6304383333333,-96.9807733333333,5.6,7.5,202,980.66,17.6,49,20.32,0.0,1006.52,345.5
2018-08-23 07:40,50.6304383333333,-96.9807716666667,6.4,8.3,199,980.57,17.4,50,20.32,0.0,1006.45,345.5
2018-08-23 07:50,50.6304366666667,-96.9807683333333,6.5,8.2,201,980.46,17.3,50,20.31,0.0,1006.36,345.5
2018-08-23 08:00,50.630435,-96.980765,6.7,7.8,202,980.34,17.3,50,20.29,0.0,1006.25,142.0
2018-08-23 08:10,50.630425,-96.9807516666667,7.5,9.2,199,980.26,17.1,51,20.27,0.0,1006.17,142.0
2018-08-23 08:20,50.63044,-96.980755,7.6,9.8,202,980.21,17.0,52,20.26,0.0,1006.14,142.0
2018-08-23 08:30,50.6304433333333,-96.9807583333333,7.9,10.4,204,980.13,17.0,51,20.23,0.0,1006.07,142.0
2018-08-23 08:40,50.6304433333333,-96.98076,8.6,12.1,205,980.04,17.1,50,20.21,0.0,1005.99,142.0
2018-08-23 08:50,50.6304416666667,-96.9807616666667,9.0,12.0,206,979.95,17.1,51,20.20,0.0,1005.90,142.0
2018-08-23 09:00,50.6304416666667,-96.9807616666667,9.4,11.8,207,979.89,17.0,51,20.18,0.0,1005.85,90.0
2018-08-23 09:10,50.6304416666667,-96.9807616666667,8.9,11.6,208,979.86,16.8,52,20.16,0.0,1005.84,90.0
2018-08-23 09:20,50.6304433333333,-96.9807616666667,8.7,10.9,210,979.85,16.7,53,20.11,0.0,1005.83,90.0
2018-08-23 09:30,50.6304433333333,-96.980765,8.8,11.2,213,979.83,16.6,53,20.11,0.0,1005.83,90.0
2018-08-23 09:40,50.6304433333333,-96.9807666666667,8.7,11.3,212,979.81,16.4,54,20.10,0.0,1005.83,90.0
2018-08-23 09:50,50.630445,-96.9807666666667,8.6,11.0,210,979.82,16.3,55,20.09,0.0,1005.84,90.0
2018-08-23 10:00,50.6304583333333,-96.9807816666667,8.9,11.0,210,979.79,16.2,55,20.07,0.0,1005.82,310.6
2018-08-23 10:10,50.6304416666667,-96.9807633333333,8.5,11.3,212,979.79,16.2,56,20.06,0.0,1005.82,310.6
2018-08-23 10:20,50.630445,-96.980765,8.3,10.5,213,979.72,16.0,57,20.05,0.0,1005.76,310.6
2018-08-23 10:30,50.6304366666667,-96.9807833333333,8.9,11.7,213,979.62,15.9,57,20.04,0.0,1005.66,310.6
2018-08-23 10:40,50.6304366666667,-96.980765,8.2,10.1,218,979.59,15.8,59,20.03,0.0,1005.63,310.6
2018-08-23 10:50,50.6304366666667,-96.9807683333333,8.4,10.9,218,979.59,15.7,59,20.01,0.0,1005.64,310.6
2018-08-23 11:00,50.6304366666667,-96.98076,7.8,10.4,217,979.63,15.5,61,19.99,0.0,1005.70,90.0
2018-08-23 11:10,50.630435,-96.9807633333333,8.8,11.2,213,979.59,15.3,61,19.97,0.0,1005.67,90.0
2018-08-23 11:20,50.6304416666667,-96.9807816666667,9.7,12.4,210,979.55,15.2,62,19.94,0.0,1005.64,90.0
2018-08-23 11:30,50.6304366666667,-96.9807733333333,9.3,11.7,212,979.51,15.1,63,19.94,0.0,1005.61,90.0
2018-08-23 11:40,50.63044,-96.9808,9.4,12.2,211,979.52,15.0,63,19.94,0.0,1005.64,90.0
2018-08-23 11:50,50.63043,-96.980775,9.8,12.0,211,979.55,14.9,64,19.92,0.0,1005.67,90.0
2018-08-23 12:00,50.6304316666667,-96.9807766666667,8.3,10.8,213,979.61,14.8,65,19.89,0.0,1005.75,228.3
2018-08-23 12:10,50.630435,-96.980775,8.1,10.6,209,979.64,14.7,65,19.88,0.0,1005.78,228.3
2018-08-23 12:20,50.630435,-96.9807716666667,8.3,11.0,210,979.69,14.6,65,19.89,0.0,1005.84,228.3
2018-08-23 12:30,50.6304433333333,-96.9807666666667,7.5,9.6,207,979.77,14.6,66,19.88,0.0,1005.92,228.3
2018-08-23 12:40,50.6304416666667,-96.9807633333333,7.2,10.3,211,979.79,14.7,66,19.85,0.0,1005.95,228.3
2018-08-23 12:50,50.6304416666667,-96.9807633333333,6.3,8.6,216,979.77,14.9,66,19.83,0.0,1005.93,228.3
2018-08-23 13:00,50.63044,-96.9807616666667,7.0,9.3,214,979.77,15.0,66,19.83,0.0,1005.93,131.6
2018-08-23 13:10,50.63044,-96.9807616666667,7.0,8.8,206,979.74,15.3,66,19.81,0.0,1005.90,131.6
2018-08-23 13:20,50.63044,-96.9807633333333,8.0,10.5,207,979.72,15.5,65,19.79,0.0,1005.87,131.6
2018-08-23 13:30,50.63044,-96.9807633333333,7.1,9.2,213,979.74,15.8,64,19.79,0.0,1005.88,131.6
2018-08-23 13:40,50.63044,-96.9807633333333,7.8,11.2,215,979.86,16.2,63,19.78,0.0,1005.99,131.6
2018-08-23 13:50,50.6304416666667,-96.9807633333333,6.3,8.9,217,979.90,16.5,63,19.77,0.0,1006.03,131.6
2018-08-23 14:00,50.6304416666667,-96.9807633333333,4.6,17.2,0,980.44,17.3,65,19.78,0.0,1006.55,311.7
2018-08-23 14:10,50.6304416666667,-96.9807633333333,2.8,8.6,5,980.56,18.1,64,19.77,0.0,1006.64,311.7
2018-08-23 14:20,50.6304466666667,-96.9807616666667,1.6,7.0,57,980.67,18.3,65,19.78,0.0,1006.74,311.7
2018-08-23 14:30,50.6304483333333,-96.9807766666667,4.8,8.7,80,980.50,18.7,65,19.81,0.0,1006.55,311.7
2018-08-23 14:40,50.63045,-96.980775,3.7,5.6,128,980.44,18.4,65,19.82,0.0,1006.49,311.7
2018-08-23 14:50,50.6304516666667,-96.9807733333333,6.0,8.4,163,980.51,17.8,66,19.83,0.0,1006.58,311.7
2018-08-23 15:00,50.6304516666667,-96.9807733333333,5.3,7.6,142,980.56,17.9,65,19.82,0.0,1006.61,360.0
2018-08-23 15:10,50.6304316666667,-96.9807616666667,6.4,8.0,145,980.53,18.0,65,19.75,0.0,1006.57,360.0
2018-08-23 15:20,50.6304283333333,-96.9807666666667,7.1,8.1,141,980.52,18.1,64,19.74,0.0,1006.54,360.0
2018-08-23 15:30,50.63044,-96.980765,8.0,9.1,150,980.41,18.0,65,19.76,0.0,1006.41,360.0
2018-08-23 15:40,50.63044,-96.980765,7.9,9.0,147,980.37,18.3,65,19.74,0.0,1006.35,360.0
2018-08-23 15:50,50.6304383333333,-96.98076,7.4,9.6,134,980.35,19.1,66,19.79,0.0,1006.26,360.0
2018-08-23 16:00,50.630445,-96.9807616666667,7.0,8.7,129,980.31,19.7,65,19.78,0.0,1006.15,90.0
2018-08-23 16:10,50.6304516666667,-96.9807466666667,6.9,7.9,119,980.31,20.1,65,19.72,0.0,1006.12,90.0
2018-08-23 16:20,50.6304316666667,-96.9807733333333,7.6,8.8,117,980.28,20.3,66,19.79,0.0,1006.06,90.0
2018-08-23 16:30,50.6304233333333,-96.980785,8.9,10.4,113,980.25,20.5,69,19.80,0.0,1006.04,90.0
2018-08-23 16:40,50.6304266666667,-96.9807683333333,8.3,9.9,108,980.13,20.5,68,19.80,0.0,1005.94,90.0
2018-08-23 16:50,50.6304283333333,-96.9807633333333,8.7,9.7,110,980.15,20.8,68,19.80,0.0,1005.95,90.0
2018-08-23 17:00,50.6304316666667,-96.9807666666667,7.3,8.7,109,980.20,20.7,68,19.81,0.0,1005.99,142.0
2018-08-23 17:10,50.6304316666667,-96.9807666666667,6.2,7.3,115,980.10,21.1,68,19.81,0.0,1005.87,142.0
2018-08-23 17:20,50.6304316666667,-96.9807666666667,6.4,7.6,105,980.08,21.2,68,19.88,0.0,1005.85,142.0
2018-08-23 17:30,50.6304483333333,-96.980795,5.7,7.7,97,980.00,21.8,66,19.92,0.0,1005.74,142.0
2018-08-23 17:40,50.6304466666667,-96.9807883333333,5.5,6.6,99,980.03,22.2,64,19.92,0.0,1005.71,142.0
2018-08-23 17:50,50.6304333333333,-96.980785,5.4,6.4,97,980.02,22.4,63,19.95,0.0,1005.66,142.0
2018-08-23 18:00,50.6304366666667,-96.9807883333333,5.3,6.4,87,979.92,22.5,60,19.91,0.0,1005.54,211.1
2018-08-23 18:10,50.6304383333333,-96.9807866666667,5.0,6.6,92,979.86,22.5,58,19.93,0.0,1005.47,211.1
2018-08-23 18:20,50.63044,-96.9807816666667,6.7,7.8,102,979.90,22.6,60,19.95,0.0,1005.50,211.1
2018-08-23 18:30,50.6304416666667,-96.9807816666667,6.4,7.3,100,979.91,22.5,60,19.91,0.0,1005.51,211.1
2018-08-23 18:40,50.6304416666667,-96.9807816666667,5.4,7.3,94,979.88,22.8,59,19.92,0.0,1005.46,211.1
2018-08-23 18:50,50.6304333333333,-96.9807733333333,6.2,7.1,85,979.84,22.6,60,19.98,0.0,1005.42,211.1
2018-08-23 19:00,50.63045,-96.9808166666667,6.3,7.4,76,979.77,22.2,61,20.01,0.0,1005.36,285.8
2018-08-23 19:10,50.6304366666667,-96.980785,6.0,7.1,62,979.85,21.5,64,20.00,0.0,1005.46,285.8
2018-08-23 19:20,50.630435,-96.9807783333333,7.9,9.4,40,979.83,21.2,63,19.97,0.0,1005.43,285.8
2018-08-23 19:30,50.6304383333333,-96.9807783333333,9.1,10.4,27,979.80,21.1,64,20.07,0.0,1005.38,285.8
2018-08-23 19:40,50.6304383333333,-96.9807766666667,9.2,10.7,22,979.84,21.1,65,20.10,0.0,1005.42,285.8
2018-08-23 19:50,50.6304116666667,-96.9808183333333,10.6,11.9,19,979.72,21.0,66,20.19,0.0,1005.30,285.8
2018-08-23 20:00,50.630435,-96.98078,11.1,13.3,16,979.63,20.9,69,20.18,0.0,1005.20,291.5
2018-08-23 20:10,50.630425,-96.9807733333333,12.5,14.7,17,979.60,21.0,69,20.19,0.0,1005.17,291.5
2018-08-23 20:20,50.6304283333333,-96.9807683333333,12.9,14.9,15,979.54,21.1,69,20.32,0.0,1005.11,291.5
2018-08-23 20:30,50.63043,-96.9807666666667,13.9,15.8,16,979.41,21.2,69,20.29,0.0,1004.95,291.5
2018-08-23 20:40,50.630435,-96.9807683333333,13.5,15.7,18,979.34,21.3,67,20.34,0.0,1004.88,291.5
2018-08-23 20:50,50.6304366666667,-96.98077,14.4,16.3,14,979.26,21.3,72,20.33,0.0,1004.83,291.5
2018-08-23 21:00,50.6304416666667,-96.9807683333333,14.6,16.8,13,979.24,21.3,73,20.33,0.0,1004.83,73.2
2018-08-23 21:10,50.6304466666667,-96.980775,13.9,16.8,13,979.25,21.4,77,20.45,0.0,1004.84,73.2
2018-08-23 21:20,50.6304433333333,-96.9807733333333,13.0,15.4,14,979.23,21.5,79,20.36,0.0,1004.83,73.2
2018-08-23 21:30,50.6304433333333,-96.9807716666667,14.5,16.8,14,979.16,21.6,71,20.28,0.0,1004.75,73.2
2018-08-23 21:40,50.6304416666667,-96.9807716666667,13.7,16.5,14,979.15,21.5,78,20.26,0.0,1004.76,73.2
2018-08-23 21:50,50.63043,-96.980765,13.6,16.2,17,979.12,21.6,79,20.36,0.0,1004.72,73.2
2018-08-23 22:00,50.6304383333333,-96.98078,15.5,18.2,16,979.08,21.6,76,20.53,0.0,1004.67,116.7
2018-08-23 22:10,50.6304433333333,-96.9807733333333,15.9,19.0,18,979.07,21.5,75,20.48,0.0,1004.67,116.7
2018-08-23 22:20,50.6304433333333,-96.9807733333333,16.4,19.3,17,979.07,21.6,69,20.44,0.0,1004.66,116.7
2018-08-23 22:30,50.63044,-96.9807666666667,15.9,19.2,14,979.09,21.6,68,20.44,0.0,1004.67,116.7
2018-08-23 22:40,50.63044,-96.9807666666667,14.8,18.1,15,979.09,21.7,68,20.42,0.0,1004.67,116.7
2018-08-23 22:50,50.63044,-96.9807816666667,15.4,18.5,15,978.99,21.7,67,20.43,0.0,1004.56,116.7
2018-08-23 23:00,50.63044,-96.980775,15.1,17.3,13,978.97,21.7,68,20.36,0.0,1004.54,54.7
2018-08-23 23:10,50.6304433333333,-96.9807683333333,13.7,15.6,11,979.08,21.6,73,20.35,0.0,1004.65,54.7
2018-08-23 23:20,50.6304316666667,-96.9807566666667,14.4,17.4,9,979.10,21.6,73,20.38,0.0,1004.67,54.7
2018-08-23 23:30,50.6304283333333,-96.9807516666667,15.9,18.6,7,979.04,21.6,70,20.40,0.0,1004.61,54.7
2018-08-23 23:40,50.6304316666667,-96.9807566666667,15.8,18.1,7,978.97,21.5,71,20.42,0.0,1004.54,54.7
